Lowell, ID

4:09 AM MDT on July 28, 2017 (GMT -0600)
Lowell

Weather History for KP69 - August, 2014

Change the Weather History Date:

Tuesday, August 19, 2014

  Actual Average Record
Temperature  
Mean Temperature 74 °F -  
Max Temperature 93 °F 85 °F 99 °F (2003)
Min Temperature 55 °F 52 °F 44 °F (1996)
Cooling Degree Days 9    
Growing Degree Days 24 (Base 50)    
Moisture  
Dew Point 55 °F    
Average Humidity 62    
Maximum Humidity 96    
Minimum Humidity 24    
Precipitation  
Precipitation 0.30 in - - ()
Sea Level Pressure  
Sea Level Pressure 29.69 in    
Wind  
Wind Speed 3 mph (NNW)    
Max Wind Speed 6 mph    
Max Gust Speed -    
Averages and records for this station are not official NWS values.
T = Trace of Precipitation, MM = Missing Value Source: NWS Daily Summary

Daily Weather History Graph

Daily Weather History Graph

Search for Another Location

Airport or City:

Trip Planner

Search our weather history database for the weather conditions in past years. The results will help you decide how hot, cold, wet, or windy it might be!

Date:

Astronomy

Aug. 19, 2014 Rise Set
Actual Time 6:46 AM MDT 8:44 PM MDT
Civil Twilight 6:14 AM MDT 9:16 PM MDT
Nautical Twilight 5:34 AM MDT 9:55 PM MDT
Astronomical Twilight 4:50 AM MDT 10:39 PM MDT
Moon 1:36 AM MDT (8/19) 4:50 PM MDT (8/19)
Length of Visible Light 15h 02m
Length of Day
13h 57m
Waning Crescent, 28% of the Moon is Illuminated
Aug 19
Waning Crescent
Aug 25
New
Sep 2
First Quarter
Sep 8
Full
Sep 15
Last Quarter

Hourly Weather History & Observations

Time (MDT) Temp. Heat Index Dew Point Humidity Pressure Visibility Wind Dir Wind Speed Gust Speed Precip Events Conditions
12:52 AM 64.0 °F - 55.0 °F 73% 29.75 in - NNW 5.8 mph - N/A   Unknown
1:52 AM 62.1 °F - 55.0 °F 78% 29.75 in - NNW 4.6 mph - N/A   Unknown
3:52 AM 60.1 °F - 54.0 °F 80% 29.75 in - NNW 5.8 mph - N/A   Unknown
4:52 AM 57.9 °F - 54.0 °F 87% 29.76 in - North 4.6 mph - N/A   Unknown
5:52 AM 57.9 °F - 53.1 °F 84% 29.77 in - NNW 3.5 mph - N/A   Unknown
6:52 AM 57.0 °F - 53.1 °F 87% 29.79 in - North 3.5 mph - N/A   Unknown
7:52 AM 55.9 °F - 53.1 °F 90% 29.81 in - NNW 3.5 mph - N/A   Unknown
8:52 AM 59.0 °F - 54.0 °F 83% 29.81 in - North 3.5 mph - N/A   Unknown
9:52 AM 64.9 °F - 54.0 °F 68% 29.78 in - Calm Calm - N/A   Unknown
10:52 AM 71.1 °F - 53.1 °F 53% 29.75 in - Calm Calm - N/A   Unknown
11:52 AM 77.0 °F - 52.0 °F 42% 29.71 in - Calm Calm - N/A   Unknown
12:52 PM 82.9 °F 81.8 °F 53.1 °F 36% 29.67 in - Calm Calm - N/A   Unknown
1:52 PM 90.0 °F 87.9 °F 55.0 °F 30% 29.63 in - Calm Calm - N/A   Unknown
3:52 PM 93.9 °F - 52.0 °F 24% 29.56 in - Variable 3.5 mph - N/A   Unknown
4:52 PM 91.9 °F 89.5 °F 53.1 °F 27% 29.54 in - Calm Calm - N/A   Unknown
5:52 PM 84.0 °F 82.9 °F 55.0 °F 37% 29.55 in - Calm Calm - N/A   Unknown
6:52 PM 80.1 °F 80.6 °F 57.9 °F 47% 29.56 in - North 4.6 mph - N/A   Unknown
7:52 PM 77.0 °F - 61.0 °F 58% 29.57 in - Calm Calm - N/A   Unknown
8:52 PM 72.0 °F - 59.0 °F 64% 29.60 in - Variable 3.5 mph - N/A   Unknown
9:52 PM 70.0 °F - 57.0 °F 63% 29.63 in - North 4.6 mph - N/A   Unknown
10:52 PM 70.0 °F - 57.9 °F 65% 29.64 in - Calm Calm - N/A   Unknown
11:52 PM 64.0 °F - 63.0 °F 96% 29.70 in - Variable 3.5 mph - 0.30 in   Unknown